• In Czech Republic
  • List of Countries
  • For 7 days
  • Water Temperature
  • Satellite Maps
  • Weather Map
  • Weather Widgets
  • user-avatar
    Login

    Hourly Weather Kavarna

    Today, 21 February, Wednesday

    Time Temperature Precipitation Wind Pressure Humidity
    00:00 +2°C° 0 mm 7 mps 762 mmHg 84%
    01:00 +2°C° 0 mm 7 mps 762 mmHg 84%
    02:00 +2°C° 0 mm 7 mps 762 mmHg 84%
    03:00 +2°C° 0 mm 7 mps 761 mmHg 84%
    04:00 +2°C° 0 mm 6 mps 761 mmHg 84%
    05:00 +2°C° 0 mm 6 mps 761 mmHg 84%
    06:00 +2°C° 0 mm 7 mps 761 mmHg 84%
    07:00 +2°C° 0 mm 7 mps 761 mmHg 84%
    08:00 +2°C° 0 mm 7 mps 761 mmHg 84%
    09:00 +3°C° 0.1 mm 7 mps 761 mmHg 83%
    10:00 +3°C° 0.1 mm 7 mps 761 mmHg 82%
    11:00 +3°C° 0.1 mm 7 mps 761 mmHg 81%
    12:00 +3°C° 0 mm 7 mps 761 mmHg 80%
    13:00 +3°C° 0 mm 7 mps 761 mmHg 80%
    14:00 +3°C° 0 mm 7 mps 760 mmHg 80%
    15:00 +3°C° 0 mm 7 mps 760 mmHg 80%
    16:00 +3°C° 0 mm 7 mps 760 mmHg 81%
    17:00 +3°C° 0 mm 7 mps 760 mmHg 81%
    18:00 +3°C° 0 mm 7 mps 760 mmHg 82%
    19:00 +3°C° 0 mm 6 mps 760 mmHg 84%
    20:00 +3°C° 0 mm 6 mps 760 mmHg 85%
    21:00 +3°C° 0 mm 6 mps 760 mmHg 85%
    22:00 +2°C° 0 mm 6 mps 760 mmHg 86%
    23:00 +2°C° 0 mm 6 mps 760 mmHg 86%

    Tomorrow, 22 February, Thursday

    Time Temperature Precipitation Wind Pressure Humidity
    00:00 +2°C° 0 mm 6 mps 760 mmHg 86%
    01:00 +2°C° 0 mm 6 mps 760 mmHg 86%
    02:00 +2°C° 0 mm 6 mps 760 mmHg 86%
    03:00 +2°C° 0.1 mm 6 mps 759 mmHg 86%
    04:00 +2°C° 0.1 mm 6 mps 759 mmHg 87%
    05:00 +2°C° 0.1 mm 7 mps 759 mmHg 88%
    06:00 +2°C° 1.3 mm 6 mps 759 mmHg 90%
    07:00 +2°C° 1.3 mm 6 mps 759 mmHg 91%
    08:00 +3°C° 1.3 mm 6 mps 759 mmHg 93%
    09:00 +3°C° 1.4 mm 6 mps 759 mmHg 93%
    10:00 +3°C° 1.4 mm 6 mps 759 mmHg 93%
    11:00 +3°C° 1.4 mm 7 mps 759 mmHg 92%
    12:00 +3°C° 0.4 mm 7 mps 759 mmHg 91%
    13:00 +3°C° 0.4 mm 7 mps 759 mmHg 90%
    14:00 +3°C° 0.4 mm 7 mps 759 mmHg 89%
    15:00 +3°C° 0.1 mm 7 mps 759 mmHg 90%
    16:00 +3°C° 0.1 mm 7 mps 759 mmHg 90%
    17:00 +3°C° 0.1 mm 7 mps 759 mmHg 90%
    18:00 +3°C° 0.1 mm 6 mps 759 mmHg 91%
    19:00 +3°C° 0.1 mm 6 mps 760 mmHg 91%
    20:00 +3°C° 0.1 mm 6 mps 760 mmHg 92%
    21:00 +3°C° 0 mm 6 mps 760 mmHg 92%
    22:00 +3°C° 0 mm 5 mps 760 mmHg 92%
    23:00 +3°C° 0 mm 5 mps 760 mmHg 92%

    Day after tomorrow, 23 February, Friday

    Time Temperature Precipitation Wind Pressure Humidity
    00:00 +3°C° 0 mm 5 mps 761 mmHg 92%
    01:00 +2°C° 0 mm 5 mps 761 mmHg 92%
    02:00 +2°C° 0 mm 5 mps 761 mmHg 92%
    03:00 +2°C° 0 mm 5 mps 761 mmHg 92%
    04:00 +2°C° 0 mm 5 mps 761 mmHg 92%
    05:00 +2°C° 0 mm 5 mps 760 mmHg 92%
    06:00 +2°C° 0 mm 5 mps 761 mmHg 91%
    07:00 +2°C° 0 mm 5 mps 761 mmHg 91%
    08:00 +2°C° 0 mm 5 mps 762 mmHg 90%
    09:00 +2°C° 0 mm 5 mps 762 mmHg 88%
    10:00 +3°C° 0 mm 5 mps 762 mmHg 85%
    11:00 +4°C° 0 mm 4 mps 762 mmHg 83%
    12:00 +5°C° 0 mm 4 mps 762 mmHg 82%
    13:00 +5°C° 0 mm 4 mps 762 mmHg 80%
    14:00 +5°C° 0 mm 4 mps 762 mmHg 79%
    15:00 +5°C° 0 mm 4 mps 762 mmHg 80%
    16:00 +5°C° 0 mm 5 mps 762 mmHg 81%
    17:00 +5°C° 0 mm 5 mps 762 mmHg 82%
    18:00 +3°C° 0 mm 5 mps 762 mmHg 83%
    19:00 +4°C° 0 mm 4 mps 762 mmHg 84%
    20:00 +3°C° 0 mm 4 mps 763 mmHg 85%
    21:00 +3°C° 0 mm 4 mps 763 mmHg 86%
    22:00 +3°C° 0 mm 4 mps 763 mmHg 87%
    23:00 +2°C° 0 mm 3 mps 763 mmHg 88%

    24 February, Saturday

    Time Temperature Precipitation Wind Pressure Humidity
    00:00 +2°C° 0 mm 3 mps 762 mmHg 88%
    01:00 +2°C° 0 mm 3 mps 762 mmHg 88%
    02:00 +2°C° 0 mm 3 mps 762 mmHg 88%
    03:00 +2°C° 0 mm 3 mps 762 mmHg 89%
    04:00 +2°C° 0 mm 3 mps 762 mmHg 89%
    05:00 +2°C° 0 mm 3 mps 762 mmHg 90%
    06:00 +2°C° 0 mm 3 mps 762 mmHg 88%
    07:00 +1°C° 0 mm 4 mps 762 mmHg 86%
    08:00 +1°C° 0 mm 4 mps 762 mmHg 85%
    09:00 +3°C° 0 mm 4 mps 762 mmHg 80%
    10:00 +4°C° 0 mm 4 mps 762 mmHg 76%
    11:00 +4°C° 0 mm 4 mps 762 mmHg 71%
    12:00 +3°C° 0 mm 5 mps 762 mmHg 73%
    13:00 +3°C° 0 mm 5 mps 762 mmHg 75%
    14:00 +3°C° 0 mm 5 mps 761 mmHg 76%
    15:00 +2°C° 0.1 mm 6 mps 761 mmHg 78%
    16:00 +2°C° 0.1 mm 7 mps 761 mmHg 80%
    17:00 +2°C° 0.1 mm 7 mps 761 mmHg 82%
    18:00 0°C° 0.1 mm 8 mps 761 mmHg 82%
    19:00 0°C° 0.1 mm 8 mps 761 mmHg 82%
    20:00 -1°C° 0.1 mm 9 mps 762 mmHg 82%
    21:00 -1°C° 0.1 mm 9 mps 762 mmHg 81%
    22:00 -3°C° 0.1 mm 9 mps 762 mmHg 79%
    23:00 -3°C° 0.1 mm 10 mps 762 mmHg 78%

    25 February, Sunday

    Time Temperature Precipitation Wind Pressure Humidity
    00:00 -3°C° 0.1 mm 10 mps 761 mmHg 78%
    01:00 -4°C° 0.1 mm 10 mps 761 mmHg 78%
    02:00 -4°C° 0.1 mm 10 mps 761 mmHg 78%
    03:00 -5°C° 0.3 mm 10 mps 761 mmHg 78%
    04:00 -7°C° 0.3 mm 10 mps 761 mmHg 78%
    05:00 -7°C° 0.3 mm 10 mps 761 mmHg 78%
    06:00 -7°C° 0.2 mm 11 mps 761 mmHg 77%
    07:00 -8°C° 0.2 mm 11 mps 762 mmHg 76%
    08:00 -8°C° 0.2 mm 11 mps 762 mmHg 75%
    09:00 -8°C° 0.2 mm 11 mps 762 mmHg 74%
    10:00 -7°C° 0.2 mm 11 mps 762 mmHg 74%
    11:00 -7°C° 0.2 mm 10 mps 762 mmHg 73%
    12:00 -7°C° 0.2 mm 10 mps 762 mmHg 73%
    13:00 -7°C° 0.2 mm 10 mps 762 mmHg 73%
    14:00 -7°C° 0.2 mm 10 mps 762 mmHg 74%
    15:00 -7°C° 0.2 mm 10 mps 762 mmHg 75%
    16:00 -6°C° 0.2 mm 9 mps 762 mmHg 76%
    17:00 -6°C° 0.2 mm 9 mps 762 mmHg 77%
    18:00 -6°C° 0.2 mm 9 mps 763 mmHg 78%
    19:00 -6°C° 0.2 mm 9 mps 763 mmHg 78%
    20:00 -6°C° 0.2 mm 8 mps 763 mmHg 79%
    21:00 -6°C° 0.2 mm 8 mps 763 mmHg 80%
    22:00 -6°C° 0.2 mm 8 mps 763 mmHg 80%
    23:00 -6°C° 0.2 mm 8 mps 763 mmHg 81%

    26 February, Monday

    Time Temperature Precipitation Wind Pressure Humidity
    00:00 -6°C° 0.1 mm 8 mps 763 mmHg 81%
    01:00 -6°C° 0.1 mm 8 mps 763 mmHg 80%
    02:00 -6°C° 0.1 mm 8 mps 763 mmHg 80%
    03:00 -6°C° 0.1 mm 9 mps 762 mmHg 81%
    04:00 -6°C° 0.1 mm 9 mps 762 mmHg 82%
    05:00 -6°C° 0.1 mm 9 mps 762 mmHg 83%
    06:00 -6°C° 0.2 mm 9 mps 762 mmHg 84%
    07:00 -5°C° 0.2 mm 9 mps 762 mmHg 84%
    08:00 -5°C° 0.2 mm 10 mps 761 mmHg 84%
    09:00 -4°C° 0.1 mm 10 mps 761 mmHg 84%
    10:00 -4°C° 0.1 mm 10 mps 761 mmHg 83%
    11:00 -4°C° 0.1 mm 11 mps 760 mmHg 83%
    12:00 -4°C° 0.2 mm 11 mps 760 mmHg 83%
    13:00 -5°C° 0.2 mm 12 mps 759 mmHg 84%
    14:00 -5°C° 0.2 mm 12 mps 758 mmHg 84%
    15:00 -5°C° 0.6 mm 12 mps 758 mmHg 86%
    16:00 -5°C° 0.6 mm 12 mps 757 mmHg 88%
    17:00 -5°C° 0.6 mm 13 mps 757 mmHg 90%
    18:00 -5°C° 0.6 mm 13 mps 756 mmHg 90%
    19:00 -5°C° 0.6 mm 13 mps 755 mmHg 89%
    20:00 -5°C° 0.6 mm 14 mps 754 mmHg 89%
    21:00 -5°C° 1 mm 14 mps 754 mmHg 89%
    22:00 -5°C° 1 mm 14 mps 753 mmHg 89%
    23:00 -4°C° 1 mm 15 mps 752 mmHg 89%
    Show more